This demonstration page uses our WeatherBlox Daily Observations layout. Learn more.

Left ArrowRight Arrow

Hourly Observations for June 22, 2017

Temp ( °F °C ) Dew Point ( °F °C ) Humidity (%) Winds ( mph kmh ) Pressure ( in mb ) Visibility ( mi km ) Precip ( " mm )
12:53 am 00:53 Mostly Clear 53 11.7 41 5 64 64 S 5 7 29.92 1013 10 16 0.00 0.00
1:53 am 01:53 Clear 48 8.9 40 4.4 74 74 W 6 9 29.94 1014 10 16 0.00 0.00
2:53 am 02:53 Mostly Clear 47 8.3 42 5.6 83 83 WSW 5 7 29.97 1015 10 16 0.00 0.00
3:53 am 03:53 Mostly Cloudy 48 8.9 42 5.6 80 80 W 5 7 29.97 1015 10 16 0.00 0.00
4:53 am 04:53 Partly Cloudy 44 6.7 40 4.4 85 85 SW 9 15 29.97 1015 10 16 0.00 0.00
5:53 am 05:53 Partly Cloudy 46 7.8 41 5 83 83 WSW 8 13 29.97 1015 10 16 0.00 0.00
6:53 am 06:53 Mostly Cloudy 50 10 42 5.6 74 74 WSW 7 11 29.99 1016 10 16 0.00 0.00
7:53 am 07:53 Mostly Cloudy 55 12.8 39 3.9 55 55 W 9 15 30.00 1016 10 16 0.00 0.00
8:53 am 08:53 Partly Cloudy 60 15.6 40 4.4 47 47 W 9 15 29.99 1016 10 16 0.00 0.00
9:53 am 09:53 Sunny 64 17.8 33 0.6 32 32 NW 22 35 29.99 1016 10 16 0.00 0.00
10:53 am 10:53 Sunny 66 18.9 31 -0.6 27 27 NW 18 30 30.00 1016 10 16 0.00 0.00
11:53 am 11:53 Mostly Sunny 65 18.3 35 1.7 33 33 NW 31 50 30.02 1017 10 16 0.00 0.00
12:53 pm 12:53 Mostly Sunny 61 16.1 37 2.8 41 41 NNW 31 50 30.08 1019 10 16 0.00 0.00
1:53 pm 13:53 Cloudy 57 13.9 39 3.9 51 51 NW 26 43 30.12 1020 10 16 0.00 0.00
2:53 pm 14:53 Cloudy 54 12.2 40 4.4 59 59 NW 23 37 30.17 1022 10 16 0.00 0.00
3:53 pm 15:53 Cloudy with Light Rain 54 12.2 44 6.7 69 69 NW 17 28 30.19 1022 10 16 0.00 0.03
4:53 pm 16:53 Cloudy 58 14.4 43 6.1 58 58 WNW 17 28 30.18 1022 10 16 0.00 0.03
5:53 pm 17:53 Cloudy 60 15.6 39 3.9 46 46 WNW 18 30 30.17 1022 10 16 0.00 0.00
6:53 pm 18:53 Mostly Cloudy 60 15.6 36 2.2 41 41 NW 18 30 30.18 1022 10 16 0.00 0.00
7:53 pm 19:53 Sunny 60 15.6 34 1.1 38 38 NNW 16 26 30.19 1022 10 16 0.00 0.00
8:53 pm 20:53 Mostly Sunny 55 12.8 36 2.2 49 49 NNW 6 9 30.21 1023 10 16 0.00 0.00
9:53 pm 21:53 Clear 51 10.6 36 2.2 56 56 N 5 7 30.23 1024 10 16 0.00 0.00
10:53 pm 22:53 Clear 43 6.1 35 1.7 74 74 Calm 30.24 1024 10 16 0.00 0.00
11:53 pm 23:53 Clear 42 5.6 35 1.7 76 76 Calm 30.25 1024 10 16 0.00 0.00

Powered by AerisWeather